New Bedford, MA

10:01 PM EST on February 07, 2016 (GMT -0500)
New Bedford Regional

Weather History for KEWB - January, 2014

Change the Weather History Date:

Wednesday, January 15, 2014

  Actual Average Record
Temperature  
Mean Temperature 40 °F -  
Max Temperature 48 °F 35 °F 55 °F (1962)
Min Temperature 32 °F 21 °F -8 °F (1957)
Degree Days  
Heating Degree Days 25    
Moisture  
Dew Point 35 °F    
Average Humidity 90    
Maximum Humidity 100    
Minimum Humidity 63    
Precipitation  
Precipitation 0.00 in - - ()
Sea Level Pressure  
Sea Level Pressure 29.94 in    
Wind  
Wind Speed 4 mph (SW)    
Max Wind Speed 12 mph    
Max Gust Speed -    
Visibility 5 miles    
Events Fog    
Averages and records for this station are not official NWS values.
T = Trace of Precipitation, MM = Missing Value Source: NWS Daily Summary

Daily Weather History Graph

Daily Weather History Graph

Search for Another Location

Airport or City:

Trip Planner

Search our weather history database for the weather conditions in past years. The results will help you decide how hot, cold, wet, or windy it might be!

Date:

Astronomy

Jan. 15, 2014 Rise Set
Actual Time 7:08 AM EST 4:38 PM EST
Civil Twilight 6:37 AM EST 5:09 PM EST
Nautical Twilight 6:03 AM EST 5:43 PM EST
Astronomical Twilight 5:30 AM EST 6:16 PM EST
Moon 4:34 PM EST (1/15) 6:21 AM EST (1/15)
Length of Visible Light 10h 31m
Length of Day
9h 30m
Full, 100% of the Moon is Illuminated
Jan 15
Full
Jan 15
Full
Jan 24
Last Quarter
Jan 30
New
Feb 6
First Quarter

Hourly Weather History & Observations

Time (EST) Temp. Windchill Dew Point Humidity Pressure Visibility Wind Dir Wind Speed Gust Speed Precip Events Conditions
12:53 AM 41.0 °F 37.1 °F 39.0 °F 93% 29.78 in 10.0 mi West 5.8 mph - 0.00 in   Clear
1:53 AM 39.9 °F 35.8 °F 37.9 °F 93% 29.82 in 10.0 mi WNW 5.8 mph - N/A   Clear
2:53 AM 37.9 °F 33.5 °F 37.0 °F 97% 29.86 in 10.0 mi WNW 5.8 mph - N/A   Clear
3:53 AM 37.9 °F 33.5 °F 35.1 °F 89% 29.90 in 10.0 mi West 5.8 mph - N/A   Clear
4:53 AM 36.0 °F 33.3 °F 34.0 °F 93% 29.94 in 10.0 mi WSW 3.5 mph - N/A   Clear
5:39 AM 32.0 °F 28.7 °F 30.9 °F 96% 29.96 in 1.5 mi SSW 3.5 mph - N/A   Clear
5:48 AM 32.0 °F 28.7 °F 30.2 °F 93% 29.96 in 0.5 mi SSW 3.5 mph - N/A Fog Fog
5:53 AM 32.0 °F 26.4 °F 30.9 °F 96% 29.97 in 0.5 mi SW 5.8 mph - N/A Fog Fog
6:02 AM 33.1 °F 27.7 °F 30.9 °F 92% 29.97 in 4.0 mi West 5.8 mph - N/A   Clear
6:53 AM 33.1 °F 30.0 °F 30.9 °F 92% 29.98 in 7.0 mi WSW 3.5 mph - N/A   Clear
7:53 AM 32.0 °F - 30.0 °F 92% 30.00 in 4.0 mi Calm Calm - N/A   Clear
8:53 AM 37.0 °F - 35.1 °F 93% 30.02 in 10.0 mi Calm Calm - N/A   Clear
9:53 AM 43.0 °F 41.3 °F 35.1 °F 74% 30.03 in 10.0 mi South 3.5 mph - N/A   Clear
10:53 AM 46.0 °F 41.9 °F 36.0 °F 68% 30.03 in 10.0 mi South 8.1 mph - N/A   Clear
11:53 AM 46.9 °F - 36.0 °F 66% 30.00 in 10.0 mi SW 9.2 mph - N/A   Clear
12:53 PM 48.0 °F - 36.0 °F 63% 29.97 in 10.0 mi South 9.2 mph - N/A   Clear
1:53 PM 48.0 °F - 36.0 °F 63% 29.97 in 10.0 mi SSW 8.1 mph - N/A   Clear
2:51 PM 46.4 °F 41.5 °F 37.4 °F 71% 29.98 in 10.0 mi South 10.4 mph - N/A   Mostly Cloudy
2:53 PM 46.0 °F 40.6 °F 37.9 °F 73% 29.98 in 10.0 mi South 11.5 mph - N/A   Mostly Cloudy
3:53 PM 45.0 °F 41.2 °F 39.0 °F 80% 29.96 in 10.0 mi South 6.9 mph - N/A   Partly Cloudy
4:53 PM 44.1 °F 40.8 °F 39.9 °F 85% 29.96 in 10.0 mi South 5.8 mph - N/A   Partly Cloudy
5:53 PM 39.9 °F - 37.9 °F 93% 29.96 in 7.0 mi Calm Calm - N/A   Clear
6:53 PM 37.9 °F - 36.0 °F 93% 29.95 in 4.0 mi Calm Calm - N/A   Scattered Clouds
7:07 PM 37.0 °F - 35.1 °F 93% 29.95 in 5.0 mi Calm Calm - N/A   Mostly Cloudy
7:15 PM 36.0 °F - 35.1 °F 97% 29.95 in 4.0 mi Calm Calm - N/A   Partly Cloudy
7:35 PM 34.0 °F - 34.0 °F 100% 29.95 in 1.5 mi Calm Calm - N/A   Partly Cloudy
7:38 PM 35.1 °F - 33.1 °F 92% 29.95 in 0.8 mi Calm Calm - N/A   Mist
7:51 PM 35.6 °F - 35.6 °F 100% 29.95 in 1.0 mi Calm Calm - N/A   Mostly Cloudy
7:53 PM 35.1 °F - 35.1 °F 100% 29.95 in 1.0 mi Calm Calm - N/A   Mostly Cloudy
8:00 PM 35.1 °F - 35.1 °F 100% 29.94 in 2.5 mi Calm Calm - N/A   Overcast
8:08 PM 36.0 °F - 34.0 °F 93% 29.94 in 5.0 mi Calm Calm - N/A   Overcast
8:31 PM 36.0 °F - 35.1 °F 97% 29.93 in 1.5 mi Calm Calm - N/A   Overcast
8:43 PM 36.0 °F - 36.0 °F 100% 29.93 in 0.5 mi Calm Calm - N/A Fog Fog
8:51 PM 37.4 °F - 35.6 °F 93% 29.93 in 0.2 mi Calm Calm - N/A Fog Fog
8:53 PM 37.0 °F - 36.0 °F 96% 29.93 in 0.2 mi Calm Calm - N/A Fog Fog
9:20 PM 37.0 °F - 37.0 °F 100% 29.92 in 0.5 mi Calm Calm - N/A Fog Fog
9:37 PM 39.0 °F - 37.9 °F 96% 29.91 in 0.2 mi Calm Calm - N/A Fog Fog
9:53 PM 39.0 °F 36.8 °F 37.9 °F 96% 29.91 in 0.2 mi East 3.5 mph - N/A Fog Fog
10:53 PM 37.9 °F - 37.0 °F 97% 29.88 in 0.2 mi Calm Calm - N/A Fog Fog
11:53 PM 37.9 °F - 37.9 °F 100% 29.87 in 0.2 mi Calm Calm - N/A Fog Fog